Regional Weather Roundup
Issued by NWS Sterling, VA

Home | Current Version | Previous Version | Text Only | Print | Product List | Glossary Off
Versions: 1 2 3 4 5 6 7 8 9 10 11 12 13 14 15 16 17 18 19 20 21 22 23 24 25 26 27 28 29 30 31 32 33 34 35 36 37 38 39 40 41 42 43 44 45 46 47 48 49 50

000
ASUS41 KLWX 010910
RWRLWX

REGIONAL WEATHER ROUNDUP
NATIONAL WEATHER SERVICE BALTIMORE MD/WASHINGTON DC
500 AM EDT MON JUN 01 2015

Note: "FAIR" indicates few or no clouds below 12,000 feet
with no significant weather and/or obstructions to visibility.
 TC=TEMPERATURE CELSIUS

 * =Non NWS site. Station does not report precipitation (e.g. rain,
    snow, etc.), thunder, or fog.

DCZ001-MDZ009-015-VAZ040>042-051-053>054-011000-
WASHINGTON METRO

CITY           SKY/WX    TMP DP  RH WIND       PRES   REMARKS
WASHINGTON NAT LGT RAIN  76  68  76 S8        30.00R
DULLES         CLOUDY    72  68  87 S5        30.00R
ANDREWS AFB    LGT RAIN  73  67  82 S8        30.00S
FT BELVOIR     CLOUDY    72  68  86 VRB1      30.00R
QUANTICO       MOCLDY    72  68  87 SW7       30.01S
COLLEGE PARK*  CLOUDY    72  72 100 CALM      30.00R
LEESBURG*      CLOUDY    72  70  94 CALM      30.01S
MANASSAS*      MOCLDY    70  66  88 S3        30.00S
GAITHERSBURG*  MOCLDY    72  64  78 CALM      30.04R

$$

MDZ006>007-011-014-011000-
BALTIMORE METRO

CITY           SKY/WX    TMP DP  RH WIND       PRES   REMARKS
BWI AIRPORT    CLOUDY    71  70  96 E6        29.99S
MD SCIENCE CTR   N/A     73  70  90 MISG      30.00S
MARTIN STATE   CLOUDY    72  72 100 E3        30.01S
ANNAPOLIS      MOCLDY    74  66  76 CALM      29.99S
FORT MEADE*    CLOUDY    68  66  94 CALM      30.02S

$$

MDZ012-015-019>023-011000-
MARYLAND EASTERN SHORE

CITY           SKY/WX    TMP DP  RH WIND       PRES   REMARKS
OCEAN CITY     PTCLDY    71  68  90 SW13G33   30.05S
SALISBURY      MOCLDY    69  67  93 S8        30.04S
BAY BRIDGE AP*   N/A    N/A N/A N/A S6        30.01S
CAMBRIDGE*     PTCLDY    77  70  78 S6        30.02S
EASTON*        PTCLDY    74  70  86 SW7       30.05S

$$

MDZ017>025-011000-
SOUTHERN MARYLAND

CITY           SKY/WX    TMP DP  RH WIND       PRES   REMARKS
PATUXENT RIVER PTCLDY    74  66  76 SW15G22   30.01S
ST INIGOES       N/A     74  67  78 S7        30.02S
LEONARDTOWN*   PTCLDY    72  64  78 S5        30.04S

$$

MDZ003>005-011000-
NORTH CENTRAL MARYLAND

CITY           SKY/WX    TMP DP  RH WIND       PRES   REMARKS
FREDERICK*     MOCLDY    66  66 100 CALM      30.02S FOG
HAGERSTOWN APT PTCLDY    68  65  90 NW3       30.00S
WESTMINSTER*   MOCLDY    70  66  88 CALM      30.01S

$$

MDZ501>502-011000-
WESTERN MARYLAND

CITY           SKY/WX    TMP DP  RH WIND       PRES   REMARKS
OAKLAND*       CLOUDY    61 N/A N/A W5        30.09S
CUMBERLAND*    CLOUDY    64  64 100 CALM      30.06R

$$

VAZ025>031-011000-
SHENANDOAH VALLEY

CITY           SKY/WX    TMP DP  RH WIND       PRES   REMARKS
WINCHESTER*    PTCLDY    70  64  83 CALM      30.01R
FRONT ROYAL*   FAIR      68  64  88 SW5       30.01R
LURAY*         FAIR      68  68 100 SW3       30.03R
NEW MARKET*    FAIR      65  64  96 CALM      30.02R
STAUNTON*      PTCLDY    65  64  95 CALM      30.07R FOG
WAYNESBORO*    FAIR      63  63 100 SW3       30.06S

$$

WVZ021-048>050-054>055-011000-
EASTERN WEST VIRGINIA PANHANDLE

CITY           SKY/WX    TMP DP  RH WIND       PRES   REMARKS
MARTINSBURG    PTCLDY    66  64  93 NW3       30.01S FOG
PETERSBURG*    MOCLDY    63  62  94 CALM      30.04S FOG

$$

VAZ036>039-050-011000-
CENTRAL FOOTHILLS

CITY           SKY/WX    TMP DP  RH WIND       PRES   REMARKS
CHARLOTTESVILL PTCLDY    67  65  93 S5        30.02S
CULPEPER*      PTCLDY    65  65  98 CALM      30.02S
ORANGE*        PTCLDY    66  64  94 CALM      30.03S
GORDONSVILLE*  FAIR      66  66  99 CALM      30.02S
WARRENTON*     FAIR      68  68  98 CALM      30.00S

$$

VAZ055>057-011000-
NORTH AND CENTRAL PIEDMONT

CITY           SKY/WX    TMP DP  RH WIND       PRES   REMARKS
FREDERICKSBRG* PTCLDY    72  71  99 S5        30.00S
STAFFORD*      PTCLDY    69  67  94 SE3       30.05S

$$

NCZ024-NYZ072-PAZ021-071-VAZ022-071-011000-
OTHER REGIONAL OBSERVATIONS

CITY           SKY/WX    TMP DP  RH WIND       PRES   REMARKS
NEW YORK CITY  LGT RAIN  57  54  89 VRB6      30.12S
PHILADELPHIA   RAIN      71  67  87 SW6       30.03S FOG
PITTSBURGH     DRIZZLE   50  47  89 NW10      30.08R
ROANOKE        PTCLDY    65  63  93 CALM      30.07S
RICHMOND       PTCLDY    72  65  78 S9        30.04R
RALEIGH        MOCLDY    72  66  81 S8        30.07S

$$

ANZ530>537-011000-
MARINE OBSERVATIONS

STATION/POSITION TIME  TEMP    WIND        PRES
                       AIR SEA DIR/SP/G
                 (UTC) (F)     (DEG/KT/KT) (MB)
THOMAS PT LIGHT  0900   73 72  170/ 12/ 12 1016.5S
BALT KEY BRIDGE  0800           50/  5/  5 1015.5F
COVE POINT       0800          220/ 11/ 14 1017.0S
LEWISETTA        0800      72              1016.4R
SOLOMONS ISLAND  0800      73                N/A
PINEY POINT      0800          230/ 12/ 14   N/A

$$



USA.gov is the U.S. government's official web portal to all federal, state and local government web resources and services.